Weather in Barsuki

Russia / Smolensk Oblast     54°21′54″N   32°03′16″E
temp.,
°C
wind,
m/s
gust,
m/s
humid.,
%
clouds,
%
prec.,
mm/h
press.,
hPa
HPBL,
m
7 august, sun
sun700:00+20s4685100 0.0 101682
03:00+18wnw3595100 2.1 1017104
06:00+17nnw4696100 2.6 1017399
09:00+16nnw5797100 4.7 1018392
12:00+15nw4597100 2.2 1020286
15:00+15nnw4595100 9.4 1020412
18:00+16n469185 0.1 1020514
21:00+14n37963 0.1 1021175
8 august, mon
mon800:00+12nne38960 0.0 1021167
03:00+11nne37978 0.0 1022145
06:00+11nne37965 0.0 1022143
09:00+15nne467916 0.0 1022404
12:00+19nne45635 0.0 1022933
15:00+21n445645 0.0 10221283
18:00+20n3464100 0.0 1021603
21:00+15nw337285 0.0 102230
9 august, tue
tue900:00+13n337963 0.0 102224
03:00+12n3371100 0.0 102235
06:00+13n2273100 0.0 102338
09:00+17n34675 0.0 1023272
12:00+21n34553 0.0 10231055
15:00+22n454967 0.0 10222097
18:00+19n3670100 0.0 1022266
21:00+15nnw347642 0.0 102352
10 august, wed
wed1000:00+13n34815 0.0 102362
03:00+15ne3773100 0.0 1022199
06:00+13nne358485 0.0 102382
09:00+17ne357298 0.0 1023345
12:00+20ne466334 0.0 1023851
15:00+21nne4763100 0.1 1022922
18:00+18n4874100 0.0 1023235
21:00+17n497399 0.0 1023241
11 august, thu
thu1100:00+14nne367972 0.0 102382
03:00+13ne488110 0.0 1023153
06:00+12ne4108810 0.0 1024187
09:00+18ne6117319 0.0 1023516
12:00+21ene796315 0.0 10231192
15:00+23ene675734 0.0 10231475
18:00+22ne58695 0.0 1023608
21:00+18ne410790 0.0 1023172